Location: Ariel
(45.9570°N, 122.5700°W)
Time: 15:19:44
(UTC-07:00)

Transit 4A - Pass Details

Date: 25 July 2019
Orbit: 863 x 981 km, 66.8° (Epoch: 21 August)

Event Time Altitude Azimuth Distance (km) Brightness Sun altitude
Rises 03:22:33 0° 248° (WSW) 3,662 - -18.5°
Reaches altitude 10° 03:25:26 10° 258° (WSW) 2,726 - -18.2°
Exits shadow 03:26:09 13° 262° (W) 2,509 9.8 -18.1°
Maximum altitude 03:31:01 31° 319° (NW) 1,660 9.4 -17.7°
Drops below altitude 10° 03:36:38 10° 20° (NNE) 2,738 11.6 -17.1°
Sets 03:39:33 0° 31° (NNE) 3,680 12.8 -16.9°
